Weather History for Falls City, NE

Change the Weather History Date:

Tuesday, November 12, 2013

  Actual Average Record
Temperature  
Mean Temperature 22 °F -  
Max Temperature 33 °F 50 °F 79 °F (2005)
Min Temperature 12 °F 29 °F 2 °F (1986)
Degree Days  
Heating Degree Days 42    
Moisture  
Dew Point 9 °F    
Average Humidity 59    
Maximum Humidity 84    
Minimum Humidity 31    
Precipitation  
Precipitation 0.00 in - - ()
Sea Level Pressure  
Sea Level Pressure 30.82 in    
Wind  
Wind Speed 6 mph (WNW)    
Max Wind Speed 10 mph    
Max Gust Speed -    
Visibility 10 miles    
Events      
Averages and records for this station are not official NWS values.
T = Trace of Precipitation, MM = Missing Value Source: NWS Daily Summary

Daily Weather History Graph

Daily Weather History Graph

Search for Another Location

Airport:

Trip Planner

Search our weather history database for the weather conditions in past years. The results will help you decide how hot, cold, wet, or windy it might be!

Date:

Astronomy

Nov. 12, 2013 Rise Set
Actual Time 7:04 AM CST 5:08 PM CST
Civil Twilight 6:35 AM CST 5:36 PM CST
Nautical Twilight 6:03 AM CST 6:09 PM CST
Astronomical Twilight 5:31 AM CST 6:41 PM CST
Moon 2:23 PM CST (11/12) 1:55 AM CST (11/12)
Length of Visible Light 11h 01m
Length of Day
10h 03m
Waxing Gibbous, 76% of the Moon is Illuminated
Nov 12
Waxing Gibbous
Nov 17
Full
Nov 25
Last Quarter
Dec 2
New
Dec 9
First Quarter

Hourly Weather History & Observations

Time (CST) Temp. Windchill Dew Point Humidity Pressure Visibility Wind Dir Wind Speed Gust Speed Precip Events Conditions
12:53 AM 19.9 °F 8.6 °F 10.9 °F 68% 30.79 in 10.0 mi North 10.4 mph - N/A   Clear
1:53 AM 18.0 °F 11.1 °F 10.9 °F 74% 30.80 in 10.0 mi NNW 4.6 mph - N/A   Clear
2:53 AM 17.1 °F 6.6 °F 10.0 °F 74% 30.84 in 10.0 mi North 8.1 mph - N/A   Clear
3:53 AM 16.0 °F 6.3 °F 10.0 °F 77% 30.86 in 10.0 mi North 6.9 mph - N/A   Clear
4:53 AM 14.0 °F - 9.0 °F 80% 30.86 in 10.0 mi Calm Calm - N/A   Clear
5:53 AM 12.0 °F 5.9 °F 8.1 °F 84% 30.88 in 10.0 mi NW 3.5 mph - N/A   Clear
6:53 AM 12.0 °F 2.7 °F 8.1 °F 84% 30.92 in 10.0 mi NW 5.8 mph - N/A   Clear
7:53 AM 14.0 °F 6.5 °F 9.0 °F 80% 30.93 in 10.0 mi NNW 4.6 mph - N/A   Clear
8:53 AM 18.0 °F 7.7 °F 10.0 °F 71% 30.94 in 10.0 mi North 8.1 mph - N/A   Clear
9:53 AM 21.0 °F 16.2 °F 12.0 °F 68% 30.93 in 10.0 mi North 3.5 mph - N/A   Clear
10:53 AM 24.1 °F 17.0 °F 12.0 °F 60% 30.92 in 10.0 mi NNW 5.8 mph - N/A   Clear
11:53 AM 26.1 °F 19.4 °F 10.0 °F 51% 30.89 in 10.0 mi Variable 5.8 mph - N/A   Clear
12:53 PM 28.9 °F 23.9 °F 9.0 °F 43% 30.85 in 10.0 mi NW 4.6 mph - N/A   Clear
1:53 PM 30.9 °F 27.5 °F 7.0 °F 37% 30.82 in 10.0 mi West 3.5 mph - N/A   Clear
2:53 PM 33.1 °F 27.7 °F 8.1 °F 35% 30.80 in 10.0 mi WNW 5.8 mph - N/A   Clear
3:53 PM 33.1 °F 30.0 °F 5.0 °F 31% 30.77 in 10.0 mi West 3.5 mph - N/A   Clear
4:53 PM 32.0 °F - 5.0 °F 32% 30.75 in 10.0 mi Calm Calm - N/A   Clear
5:53 PM 28.0 °F 22.8 °F 6.1 °F 39% 30.73 in 10.0 mi SSE 4.6 mph - N/A   Clear
6:53 PM 27.0 °F 23.0 °F 7.0 °F 43% 30.74 in 10.0 mi South 3.5 mph - N/A   Clear
7:53 PM 25.0 °F 18.1 °F 8.1 °F 49% 30.73 in 10.0 mi SSW 5.8 mph - N/A   Clear
8:53 PM 25.0 °F - 7.0 °F 46% 30.74 in 10.0 mi Calm Calm - N/A   Clear
9:53 PM 21.0 °F 12.4 °F 9.0 °F 60% 30.73 in 10.0 mi SSW 6.9 mph - N/A   Clear
10:53 PM 21.0 °F 12.4 °F 10.0 °F 63% 30.70 in 10.0 mi SSW 6.9 mph - N/A   Clear
11:53 PM 21.0 °F 10.6 °F 10.9 °F 65% 30.68 in 10.0 mi SSW 9.2 mph - N/A   Clear